www.pogodaiklimat.ru

Погода и климат >> Архив погоды >> КНДР >> Сонбонг


ПОГОДА в Сонбонге

  • Прогноз погоды в Сонбонге
  • Монитор погоды в Сонбонге

АРХИВ ПОГОДЫ в Сонбонге

Время (UTC), дата Ветер
(напр.,м/с)
 
Видим.   Явления Облачность Т
(С)
Тd
(С)
f
(%)
Тe
(С)
Тes
(С)
Комфортность P
(гПа)
Po
(гПа)
Тmin
(С)
Tmax
(С)
R
(мм)
R24
(мм)
S
(см)
21 16.05 штиль 0 18 км 10/10 100 м
[St]
+11.2 +11.0 99 +10 +10 1012.0 1011.6
00 17.05 штиль 0 18 км 10/10 600 м
[St]
+13.6 +12.5 93 +13 +13 1013.5 1013.1 +10.1
03 17.05 ЮВ 4 30 км 10/0
[Ac As]
+16.4 +13.9 85 +16 +20 1012.9 1012.5
06 17.05 ЮВ 6 30 км 5/0
[Ac trans]
+15.2 +12.8 86 +14 +17 1011.8 1011.4
09 17.05 ЮВ 4 18 км 10/10 600 м
[St]
+12.8 +12.1 96 +11 +11 1011.3 1010.9
12 17.05 ЮВ 3 800 м туман ?/? +11.5 +11.1 97 +10 +10 1012.1 1011.7 +18.0
15 17.05 ЮВ 3 800 м туман ?/? +11.5 +11.1 97 +10 +10 1012.2 1011.8
18 17.05 штиль 0 800 м туман ?/? +11.3 +10.9 97 +11 +11 1013.9 1013.5
21 17.05 штиль 0 800 м туман ?/? +11.5 +11.1 97 +11 +11 1014.7 1014.3
00 18.05 ЮВ 3 18 км 10/10 100 м
[St]
+11.3 +10.9 97 +9 +9 1015.3 1014.9 +10.7
03 18.05 ЮВ 5 18 км 10/4 100 м
[St Ci sp]
+13.3 +12.4 94 +11 +16 1015.1 1014.7
06 18.05 ЮВ 7 18 км 10/8 100 м
[St Ci sp]
+12.3 +11.5 95 +9 +10 1013.9 1013.5
09 18.05 ЮВ 5 18 км 10/10 100 м
[St]
+11.3 +10.9 97 +8 +8 1012.7 1012.3
12 18.05 ЮВ 1 800 м туман ?/? +10.9 +10.6 98 +10 +10 1013.3 1012.9 +14.5
15 18.05 штиль 0 800 м туман ?/? +11.9 +11.5 97 +11 +11 1013.4 1013.0
18 18.05 штиль 0 800 м туман ?/? +11.2 +10.9 98 +10 +10 1013.7 1013.3
21 18.05 штиль 0 800 м туман ?/? +11.8 +11.4 97 +11 +11 1013.5 1013.1
00 19.05 ЮВ 4 18 км 10/10 100 м
[St]
+13.0 +12.6 97 +11 +11 1013.6 1013.2 +10.6
03 19.05 ЮВ 6 28 км 10/5 600 м
[Sc Ci sp]
+15.4 +13.8 90 +14 +17 1012.5 1012.1
06 19.05 ЮВ 2 8000 м слаб. дождь 10/0 100 м
[As op]
+14.2 +13.8 97 +14 +16 1010.5 1010.1 0.0
09 19.05 ЮВ 2 8000 м слаб. дождь 10/0 100 м
[As op]
+14.4 +13.8 96 +14 +14 1008.1 1007.7 1
12 19.05 ЮВ 4 8000 м слаб. дождь 10/0 100 м
[As op]
+13.8 +13.4 97 +12 +12 1007.4 1007.0 +17.2 3
15 19.05 ЮВ 4 8000 м слаб. дождь 10/0 100 м
[As op]
+13.2 +12.8 97 +11 +11 1005.4 1005.0 9
18 19.05 ЮВ 4 8000 м слаб. дождь 10/0 100 м
[As op]
+13.9 +13.5 97 +12 +12 999.5 999.1 21
21 19.05 ЮЗ 2 8000 м слаб. дождь 10/0 100 м
[As op]
+14.2 +13.8 97 +14 +14 995.8 995.4 3
00 20.05 ЮВ 2 8000 м слаб. морось {дождь} 10/0 100 м
[As op]
+14.2 +13.8 97 +14 +16 994.1 993.7 +12.3 22
03 20.05 С 5 8000 м слаб. морось 10/10 100 м
[St]
+13.3 +12.9 97 +11 +11 992.5 992.1 0.9
06 20.05 ЮВ 3 28 км 10/8 600 м
[Sc Ac trans Ci sp]
+15.6 +14.2 91 +15 +16 992.2 991.8 0.9
09 20.05 ЮВ 2 20 км {дождь} 4/4 1000 м
[Sc]
+15.3 +12.0 81 +15 +16 993.1 992.7 0.0
12 20.05 штиль 0 30 км ясно +15.3 +7.4 59 +15 +15 996.3 995.9 +18.4 0.1
15 20.05 штиль 0 30 км ясно +11.4 +7.0 74 +11 +11 996.8 996.4
18 20.05 штиль 0 30 км 3/0
[Ac trans]
+9.1 +8.2 94 +8 +8 997.0 996.6
21 20.05 штиль 0 30 км ясно +8.3 +7.3 93 +7 +8 996.5 996.1
00 21.05 ЮВ 1 30 км 5/0
[Ac trans]
+14.4 +9.5 72 +15 +24 996.0 995.6 +7.3
03 21.05 ЮВ 4 28 км 8/8 600 м
[Sc]
+14.8 +10.4 75 +14 +16 995.1 994.7
06 21.05 ЮВ 3 10 км слаб. ливневой дождь 10/10 600 м
[Cb cap As op]
+17.4 +12.0 71 +17 +17 993.8 993.4 0.9
09 21.05 ЮВ 2 20 км 8/8 1000 м
[Sc]
+16.8 +10.4 66 +17 +17 996.2 995.8 0.0
12 21.05 СЗ 2 20 км 10/10 1000 м
[Sc]
+14.5 +8.8 69 +14 +14 998.5 998.1 +19.5 0.3
15 21.05 штиль 0 20 км 10/10 1000 м
[Sc]
+13.0 +8.4 74 +13 +13 998.6 998.2
18 21.05 штиль 0 20 км 10/0
[As op]
+10.7 +9.0 89 +10 +10 997.4 997.0
21 21.05 штиль 0 20 км 10/8 1000 м
[Sc Ci sp]
+9.9 +9.0 94 +9 +9 997.3 996.9
00 22.05 З 3 30 км 10/0
[Ci sp]
+17.3 +9.3 59 +17 +24 995.7 995.3 +9.4
03 22.05 С 3 28 км 8/8 600 м
[Sc Ac trans]
+17.9 +9.8 59 +18 +21 997.5 997.1
06 22.05 З 8 30 км 6/6 1000 м
[Cu med, cong]
+19.0 +9.2 53 +19 +20 998.4 998.0
09 22.05 СЗ 3 28 км 8/8 1000 м
[Sc]
+19.1 +9.9 55 +20 +20 999.5 999.1
12 22.05 штиль 0 28 км 8/8 1000 м
[Sc]
+14.6 +9.2 70 +14 +14 1002.3 1001.9 +20.9
15 22.05 штиль 0 28 км 6/6 1000 м
[Sc]
+13.6 +9.0 74 +13 +13 1003.4 1003.0
18 22.05 С 3 30 км 3/0
[Ac trans]
+13.6 +9.3 75 +12 +12 1003.0 1002.6
21 22.05 СЗ 2 30 км 5/0
[Ac trans Ci sp]
+11.7 +7.8 77 +11 +11 1003.4 1003.0
00 23.05 З 1 30 км 4/4 1000 м
[Cu med, cong]
+15.5 +10.3 71 +16 +24 1003.4 1003.0 +10.4
03 23.05 ЮВ 6 30 км ясно +18.4 +14.0 76 +18 +26 1004.3 1003.9
06 23.05 ЮВ 6 30 км ясно +16.1 +11.3 73 +15 +20 1005.4 1005.0
12 23.05 СЗ 1 30 км ясно +13.0 +9.7 80 +13 +13 1007.1 1006.7 +21.5
15 23.05 СЗ 1 30 км ясно +10.7 +8.6 87 +10 +10 1010.1 1009.7
18 23.05 штиль 0 30 км ясно +8.5 +7.4 93 +8 +8 1008.4 1008.0

 

Местоположение метеостанции Сонбонг (КНДР): широта 42.32 долгота 130.40 высота над уровнем моря 3 м.

В архиве по умолчанию представлена погода в Сонбонге за последнюю неделю. Архивные данные за месяц целиком и за предыдущие месяцы, начиная с января 2011 года, Вы можете получить, выбрав интересующий диапазон дат из раскрывающегося списка и нажав кнопку "Ввод!".


*Определитесь, кто Вы:
робот инопланетянин человек

Внимание! Время в таблицах - всемирное. Для получения местного времени необходимо прибавить поправку, которая равна 9 ч.

Смотрите также архив погоды в соседних городах и на ближайших метеорологических станциях:

Погода в Посьете (Приморский край, Россия) (49 км)
Погода в Гамове (Приморский край, Россия) (72 км)
Погода в Чхонджине (КНДР) (77 км)
Погода в Яньцзи (Гирин, Китай) (96 км)
Погода в Барабаше (Приморский край, Россия) (127 км)
Погода на Мысе Назимова (Приморский край, Россия) (147 км)
Погода в Владивостоке (Приморский край, Россия) (151 км)
Погода в Самджиёне (КНДР) (182 км)
Погода в Полтавке (Приморский край, Россия) (204 км)
Погода в Находке (Приморский край, Россия) (204 км)

Пояснения к столбцам:

Ветер - указаны скорость ветра в м/с - средняя за 10 мин, порывы в срок и между сроками (в фигурных скобках) и направление, откуда дует ветер: С - северный, СВ - северо-восточный, В - восточный, ЮВ - юго-восточный, Ю - южный, ЮЗ - юго-западный, З - западный, СЗ - северо-западный.
Видимость - горизонтальная дальность видимости в метрах или километрах. При видимости от 1 до 10 км при отсутствии осадков обычно наблюдается дымка, при ухудшении видимости до 1 км и менее - туман. В сухую погоду видимость может ухудшаться дымом, пылью или мглою.
Явления - указаны атмосферные явления, наблюдавшиеся в срок или в последний час перед сроком; фигурными скобками обозначены явления, наблюдавшиеся между сроками (за 1-3 часа до срока); квадратными скобками обозначены град или гололедные отложения с указанием их диаметра в мм.
Облачность - указаны через наклонную черту общая и нижняя облачность в баллах и высота нижней границы облаков в метрах; квадратными скобками обозначены формы облаков: Ci - перистые, Cs - перисто-слоистые, Cc - перисто-кучевые, Ac - высококучевые, As - высокослоистые, Sc - слоисто-кучевые, Ns - слоисто-дождевые, Cu - кучевые, Cb - кучево-дождевые. Подробнее классификацию облаков см. в Атласе облаков (PDF).
T - Температура воздуха - температура, измеренная на высоте 2 м над землей.
Td - Температура точки росы - температура, при понижении до которой содержащийся в воздухе водяной пар достигнет насыщения.
f - Относительная влажность воздуха - влажноcть воздуха, измеренная на высоте 2 м над землей.
Te - Эффективная температура - температура, которую ощущает одетый по сезону человек в тени. Характеристика душности погоды. При расчете учитывается влияние влажности воздуха и скорости ветра на теплоощущения человека.
Tes - Эффективная температура на солнце - температура, которую ощущает человек, с поправкой на солнечный нагрев. Характеристика знойности погоды. Зависит от высоты солнца над горизонтом, облачности и скорости ветра. Ночью, в пасмурную погоду, а также при ветре 12 м/с и более поправка равна нулю.
P - Атмосферное давление - приведенное к уровню моря атмосферное давление.
Po - Атмосферное давление - измеренное на уровне метеостанции атмосферное давление.
Tmin - Минимальная температура - минимум температуры воздуха на высоте 2 м над землей.
Tmax - Максимальная температура - максимум температуры воздуха на высоте 2 м над землей.
R - Количество осадков - Количество выпавших осадков за период времени, мм. При наведении курсора мыши на число - период времени, за который выпало указанное количество осадков.
R24 - Количество осадков - Количество выпавших осадков за 24 часа, мм.
S - Снежный покров - Высота снежного покрова, см. При наведении курсора мыши на число - состояние снежного покрова и степень покрытия местности в баллах.